Ithaca, NY

7:52 AM EDT on July 28, 2017 (GMT -0400)
Tompkins County

Weather History for KITH - June, 2013

Change the Weather History Date:

Monday, June 24, 2013

  Actual Average Record
Temperature  
Mean Temperature 76 °F -  
Max Temperature 86 °F 75 °F 91 °F (1938)
Min Temperature 65 °F 54 °F 41 °F (1953)
Cooling Degree Days 10    
Growing Degree Days 26 (Base 50)    
Moisture  
Dew Point 66 °F    
Average Humidity 76    
Maximum Humidity 93    
Minimum Humidity 53    
Precipitation  
Precipitation 0.19 in - - ()
Sea Level Pressure  
Sea Level Pressure 30.05 in    
Wind  
Wind Speed 2 mph (SSW)    
Max Wind Speed 10 mph    
Max Gust Speed -    
Visibility 10 miles    
Events Rain , Thunderstorm    
Averages and records for this station are not official NWS values.
T = Trace of Precipitation, MM = Missing Value Source: NWS Daily Summary

Daily Weather History Graph

Daily Weather History Graph

Search for Another Location

Airport or City:

Trip Planner

Search our weather history database for the weather conditions in past years. The results will help you decide how hot, cold, wet, or windy it might be!

Date:

Astronomy

Jun. 24, 2013 Rise Set
Actual Time 5:29 AM EDT 8:47 PM EDT
Civil Twilight 4:54 AM EDT 9:22 PM EDT
Nautical Twilight 4:09 AM EDT 10:07 PM EDT
Astronomical Twilight 3:14 AM EDT 11:02 PM EDT
Moon 9:44 PM EDT (6/24) 6:56 AM EDT (6/24)
Length of Visible Light 16h 27m
Length of Day
15h 17m
Full, 98% of the Moon is Illuminated
Jun 24
Full
Jun 30
Last Quarter
Jul 8
New
Jul 15
First Quarter
Jul 22
Full

Hourly Weather History & Observations

Time (EDT) Temp. Heat Index Dew Point Humidity Pressure Visibility Wind Dir Wind Speed Gust Speed Precip Events Conditions
12:56 AM 70.0 °F - 66.9 °F 90% 30.07 in 10.0 mi Calm Calm - N/A   Clear
1:56 AM 68.9 °F - 66.9 °F 93% 30.07 in 9.0 mi Calm Calm - N/A   Scattered Clouds
2:56 AM 68.9 °F - 65.8 °F 90% 30.06 in 10.0 mi Calm Calm - N/A   Clear
3:56 AM 70.0 °F - 64.9 °F 84% 30.06 in 10.0 mi Calm Calm - N/A   Clear
4:56 AM 68.0 °F - 64.9 °F 90% 30.08 in 9.0 mi Calm Calm - N/A   Clear
5:56 AM 68.9 °F - 64.9 °F 87% 30.09 in 9.0 mi Calm Calm - N/A   Partly Cloudy
6:07 AM 68.0 °F - 64.4 °F 88% 30.10 in 10.0 mi Calm Calm - N/A   Clear
6:56 AM 70.9 °F - 66.9 °F 87% 30.09 in 10.0 mi Calm Calm - N/A   Clear
7:56 AM 77.0 °F - 66.9 °F 71% 30.09 in 10.0 mi South 5.8 mph - N/A   Clear
8:56 AM 79.9 °F - 68.0 °F 67% 30.08 in 7.0 mi SW 5.8 mph - N/A   Scattered Clouds
9:56 AM 81.9 °F 84.8 °F 68.0 °F 63% 30.08 in 10.0 mi WSW 4.6 mph - N/A   Scattered Clouds
10:56 AM 82.9 °F 86.3 °F 68.9 °F 62% 30.08 in 10.0 mi West 4.6 mph - N/A   Scattered Clouds
11:56 AM 84.9 °F 88.2 °F 68.0 °F 57% 30.07 in 10.0 mi WSW 4.6 mph - N/A   Scattered Clouds
12:56 PM 86.9 °F 90.3 °F 68.0 °F 53% 30.06 in 10.0 mi WSW 5.8 mph - N/A   Scattered Clouds
1:35 PM 86.0 °F 89.4 °F 68.0 °F 55% 30.07 in 10.0 mi WNW 6.9 mph - 0.00 in Rain , Thunderstorm Light Thunderstorms and Rain
1:56 PM 74.8 °F - 63.9 °F 69% 30.05 in 6.0 mi Calm Calm - 0.17 in Rain , Thunderstorm Light Thunderstorms and Rain
2:56 PM 72.9 °F - 68.0 °F 85% 30.03 in 6.0 mi SSW 9.2 mph - 0.01 in Rain , Thunderstorm Light Thunderstorms and Rain
3:56 PM 70.9 °F - 63.9 °F 78% 30.02 in 10.0 mi SSW 9.2 mph - 0.01 in Rain Light Rain
4:56 PM 72.9 °F - 64.9 °F 76% 30.01 in 10.0 mi South 10.4 mph - 0.00 in   Scattered Clouds
5:56 PM 77.9 °F - 64.9 °F 64% 29.99 in 10.0 mi South 3.5 mph - N/A   Scattered Clouds
6:56 PM 79.9 °F - 63.9 °F 58% 29.99 in 10.0 mi Calm Calm - N/A   Scattered Clouds
7:56 PM 77.0 °F - 64.9 °F 66% 29.99 in 10.0 mi SSW 8.1 mph - N/A   Scattered Clouds
8:56 PM 72.0 °F - 64.9 °F 78% 30.01 in 10.0 mi SE 3.5 mph - N/A   Partly Cloudy
9:56 PM 68.0 °F - 64.9 °F 90% 30.02 in 10.0 mi ESE 3.5 mph - N/A   Partly Cloudy
10:56 PM 65.8 °F - 63.9 °F 93% 30.02 in 10.0 mi SSE 3.5 mph - N/A   Clear
11:56 PM 66.9 °F - 61.9 °F 84% 30.01 in 10.0 mi Calm Calm - N/A   Clear